Location: Andrest
(43.3200°N, 0.0641°E)
Time: 18:28:15
(UTC+00:00)

Meteor 1-10 Rocket - Visible Passes

Search period start: 16 April 2021 00:00
Search period end: 26 April 2021 00:00
Orbit: 835 x 911 km, 81.3° (Epoch: 15 April)

Date Brightness Start Highest point End Pass type
(mag) Time Alt. Az. Time Alt. Az. Time Alt. Az.
16 Apr 5.2 01:12:06 43° N 01:12:06 43° N 01:15:46 10° N visible
16 Apr 6.4 02:54:35 11° WNW 02:54:35 11° WNW 02:56:06 10° NW visible
16 Apr 6.7 23:24:17 12° ENE 23:24:17 12° ENE 23:25:02 10° NE visible
17 Apr 5.2 01:06:46 42° N 01:06:46 42° N 01:10:26 10° N visible
17 Apr 6.4 02:49:15 10° WNW 02:49:17 10° WNW 02:50:18 10° NW visible
17 Apr 6.6 23:18:56 12° ENE 23:18:56 12° ENE 23:19:51 10° NE visible
18 Apr 5.2 01:01:25 42° N 01:01:25 42° N 01:05:05 10° N visible
18 Apr 6.5 23:13:34 13° ENE 23:13:34 13° ENE 23:14:40 10° NE visible
19 Apr 5.2 00:56:03 42° N 00:56:03 42° N 00:59:44 10° N visible
19 Apr 6.5 23:08:11 14° ENE 23:08:11 14° ENE 23:09:27 10° NE visible
20 Apr 5.2 00:50:40 42° NNW 00:50:40 42° NNW 00:54:23 10° N visible
20 Apr 6.4 23:02:48 14° ENE 23:02:48 14° ENE 23:04:14 10° NE visible
21 Apr 5.2 00:45:16 42° NNW 00:45:16 42° NNW 00:49:02 10° N visible
21 Apr 6.4 22:57:24 15° ENE 22:57:24 15° ENE 22:59:00 10° NE visible
22 Apr 5.2 00:39:52 42° NNW 00:39:52 42° NNW 00:43:40 10° N visible
22 Apr 6.3 22:51:58 16° ENE 22:51:58 16° ENE 22:53:46 10° NE visible
23 Apr 5.2 00:34:27 42° NNW 00:34:27 42° NNW 00:38:19 10° N visible
23 Apr 6.2 22:46:33 17° ENE 22:46:33 17° ENE 22:48:32 10° NE visible
24 Apr 5.2 00:29:01 41° NNW 00:29:01 41° NNW 00:32:58 10° N visible
24 Apr 6.1 22:41:06 18° ENE 22:41:06 18° ENE 22:43:17 10° NE visible
25 Apr 5.2 00:23:34 41° NNW 00:23:34 41° NNW 00:27:37 10° N visible
25 Apr 6.0 22:35:38 19° ENE 22:35:38 19° ENE 22:38:01 10° NE visible
